Aérodrome :
LOGIN :

S'inscrire | Disclaimer

   EN    FR    IT 

 










Légende :    VFR   VFR Marginal   IFR   IFR Intensif   IFR Très Intensif
Visi : 
Plafond : 
>= 8 km
>= 3000ft
5 à 8 km
1000 à 3000 ft
1500m à 5 km
500 à 1000 ft
800 à 1500m
200 à 500 ft
< 800m
< 200 ft
Symboles :   Orages  Brouillard  Fortes neiges  Fortes précipitations  Vent > 20 kt
SIGMETs :   Divers  Orages  Givrage  Turbulence  Onde Orograph.  Cendres Volcan.







- Altitude de l'aérodrome : 49 ft
- Code IATA : SEN
- Voir les cartes d'approche


EGMC - Southend

DERNIER METAR :
  • 211320Z 14010KT 120V180 CAVOK 27/12 Q1013

METARs EXPIRÉS :
  • 211250Z VRB03KT 9999 FEW048 25/11 Q1013
  • 211220Z VRB07KT 9999 FEW048 26/12 Q1013
  • 211150Z VRB02KT 9999 FEW047 25/13 Q1013
  • 211120Z VRB03KT 9999 SCT046 25/13 Q1013
  • 211050Z VRB04KT 9999 FEW043 25/13 Q1013

TAF TAF EGMC
Valide du 21 à 12h jusqu'au 21 à 21h UTC


211102Z 2112/2121 12005KT 9999 FEW040
PROB30
TEMPO 2114/2119 8000 SHRA
Pas de NOTAMs connus pour ce terrain.



MET'MAP, la Météo Aéronautique d'un coup d'oeil ! - Copyright ORBIFLY Décembre 2007 - Disclaimer

ORBIFLY MET'MAP TEAM :

Programmation & Développement : Alexandra Zaïnal
Conception & Développement : Baudouin d'Aumeries
Co-Programmation & Développement : Marc-Olivier Méhu
Soutien technique & logistique : Manuel Goepfert

Contact : metmap@orbifly.com




SOURCES & CREDITS :

   NOAA